HVDC transfer

From www.emi.ea.govt.nz provided by the Electricity Authority (New Zealand)
Run at: 20240503223239

Parameters
Date range,13 Jul 2020 - 13 Jul 2020
Time scale,Trading period
Show,Average flow (MW)

Period start,Period end,Trading period,Direction,Energy transfer (GWh),Peak flow (MW),Average flow (MW)
13/07/2020 00:00:00,13/07/2020 00:30:00,1,Southward at Benmore,-0.092,-185,-185
13/07/2020 00:30:00,13/07/2020 01:00:00,2,Southward at Benmore,-0.094,-189,-189
13/07/2020 01:00:00,13/07/2020 01:30:00,3,Southward at Benmore,-0.108,-216,-216
13/07/2020 01:30:00,13/07/2020 02:00:00,4,Southward at Benmore,-0.079,-158,-158
13/07/2020 02:00:00,13/07/2020 02:30:00,5,Southward at Benmore,-0.081,-162,-162
13/07/2020 02:30:00,13/07/2020 03:00:00,6,Southward at Benmore,-0.083,-166,-166
13/07/2020 03:00:00,13/07/2020 03:30:00,7,Southward at Benmore,-0.086,-172,-172
13/07/2020 03:30:00,13/07/2020 04:00:00,8,Southward at Benmore,-0.089,-178,-178
13/07/2020 04:00:00,13/07/2020 04:30:00,9,Southward at Benmore,-0.094,-189,-189
13/07/2020 04:30:00,13/07/2020 05:00:00,10,Southward at Benmore,-0.069,-138,-138
13/07/2020 05:00:00,13/07/2020 05:30:00,11,Southward at Benmore,-0.033,-67,-67
13/07/2020 05:30:00,13/07/2020 06:00:00,12,Southward at Benmore,-0.034,-69,-69
13/07/2020 06:00:00,13/07/2020 06:30:00,13,Northward at Haywards,0.001,1,1
13/07/2020 06:30:00,13/07/2020 07:00:00,14,Southward at Benmore,-0.014,-29,-29
13/07/2020 07:00:00,13/07/2020 07:30:00,15,Northward at Haywards,0.075,149,149
13/07/2020 07:30:00,13/07/2020 08:00:00,16,Northward at Haywards,0.137,274,274
13/07/2020 08:00:00,13/07/2020 08:30:00,17,Northward at Haywards,0.142,283,283
13/07/2020 08:30:00,13/07/2020 09:00:00,18,Northward at Haywards,0.180,359,359
13/07/2020 09:00:00,13/07/2020 09:30:00,19,Northward at Haywards,0.205,409,409
13/07/2020 09:30:00,13/07/2020 10:00:00,20,Northward at Haywards,0.211,421,421
13/07/2020 10:00:00,13/07/2020 10:30:00,21,Northward at Haywards,0.210,420,420
13/07/2020 10:30:00,13/07/2020 11:00:00,22,Northward at Haywards,0.205,409,409
13/07/2020 11:00:00,13/07/2020 11:30:00,23,Northward at Haywards,0.205,410,410
13/07/2020 11:30:00,13/07/2020 12:00:00,24,Northward at Haywards,0.223,446,446
13/07/2020 12:00:00,13/07/2020 12:30:00,25,Northward at Haywards,0.243,486,486
13/07/2020 12:30:00,13/07/2020 13:00:00,26,Northward at Haywards,0.258,515,515
13/07/2020 13:00:00,13/07/2020 13:30:00,27,Northward at Haywards,0.268,535,535
13/07/2020 13:30:00,13/07/2020 14:00:00,28,Northward at Haywards,0.264,527,527
13/07/2020 14:00:00,13/07/2020 14:30:00,29,Northward at Haywards,0.268,536,536
13/07/2020 14:30:00,13/07/2020 15:00:00,30,Northward at Haywards,0.273,545,545
13/07/2020 15:00:00,13/07/2020 15:30:00,31,Northward at Haywards,0.267,533,533
13/07/2020 15:30:00,13/07/2020 16:00:00,32,Northward at Haywards,0.264,528,528
13/07/2020 16:00:00,13/07/2020 16:30:00,33,Northward at Haywards,0.246,492,492
13/07/2020 16:30:00,13/07/2020 17:00:00,34,Northward at Haywards,0.237,473,473
13/07/2020 17:00:00,13/07/2020 17:30:00,35,Northward at Haywards,0.235,469,469
13/07/2020 17:30:00,13/07/2020 18:00:00,36,Northward at Haywards,0.218,436,436
13/07/2020 18:00:00,13/07/2020 18:30:00,37,Northward at Haywards,0.241,481,481
13/07/2020 18:30:00,13/07/2020 19:00:00,38,Northward at Haywards,0.220,440,440
13/07/2020 19:00:00,13/07/2020 19:30:00,39,Northward at Haywards,0.205,409,409
13/07/2020 19:30:00,13/07/2020 20:00:00,40,Northward at Haywards,0.204,408,408
13/07/2020 20:00:00,13/07/2020 20:30:00,41,Northward at Haywards,0.177,354,354
13/07/2020 20:30:00,13/07/2020 21:00:00,42,Northward at Haywards,0.188,375,375
13/07/2020 21:00:00,13/07/2020 21:30:00,43,Northward at Haywards,0.183,366,366
13/07/2020 21:30:00,13/07/2020 22:00:00,44,Northward at Haywards,0.112,223,223
13/07/2020 22:00:00,13/07/2020 22:30:00,45,Northward at Haywards,0.072,144,144
13/07/2020 22:30:00,13/07/2020 23:00:00,46,Northward at Haywards,0.066,132,132
13/07/2020 23:00:00,13/07/2020 23:30:00,47,Northward at Haywards,0.008,15,15
13/07/2020 23:30:00,14/07/2020 00:00:00,48,Southward at Benmore,-0.007,-15,-15
